Tracking 30743 objects as of 22-Jun-2025
HD Live streaming from Space Station
objects crossing your sky now

STARLINK-31378

Track STARLINK-31378 now!
10-day predictions
STARLINK-31378 is classified as:


NORAD ID: 58932
Int'l Code: 2024-027B
Perigee: 481.7 km
Apogee: 483.1 km
Inclination: 53.2 °
Period: 94.1 minutes
Semi major axis: 6853 km
RCS: Unknown
Launch date: February 10, 2024
Source: United States (US)
Launch site: AIR FORCE WESTERN TEST RANGE (AFWTR)
Your satellite tracking list
Your tracking list is empty




NASA's NSSDC Master Catalog

Two Line Element Set (TLE):
1 58932U 24027B   25173.11130699 -.00001283  00000-0 -31205-4 0  9991
2 58932  53.1588  79.9114 0001014  73.3621 286.7491 15.30199639 77274
Source of the keplerian elements: AFSPC